Time,TemperatureF,DewpointF,PressureIn,WindDirection,WindDirectionDegrees,WindSpeedMPH,WindSpeedGustMPH,Humidity,HourlyPrecipIn,Conditions,Clouds,dailyrainin,SoftwareType,DateUTC
2013-04-04 00:00:00,70.6,65.9,29.90,North,0,1.0,9.0,85,0.00,,,-99.99,WeatherLink 5.7,2013-04-04 04:00:00,
2013-04-04 00:15:00,70.6,65.9,29.91,North,-999,0.0,0.0,85,0.00,,,-99.99,WeatherLink 5.7,2013-04-04 04:15:00,
2013-04-04 00:30:00,70.3,65.6,29.89,North,-999,0.0,0.0,85,0.00,,,-99.99,WeatherLink 5.7,2013-04-04 04:30:00,
2013-04-04 00:45:00,70.0,65.3,29.89,North,-999,0.0,0.0,85,0.00,,,-99.99,WeatherLink 5.7,2013-04-04 04:45:00,
2013-04-04 01:00:00,69.7,65.0,29.90,North,-999,0.0,0.0,85,0.00,,,-99.99,WeatherLink 5.7,2013-04-04 05:00:00,
2013-04-04 01:15:00,69.3,64.6,29.91,North,-999,0.0,0.0,85,0.00,,,-99.99,WeatherLink 5.7,2013-04-04 05:15:00,
2013-04-04 01:30:00,69.0,64.3,29.90,North,-999,0.0,0.0,85,0.00,,,-99.99,WeatherLink 5.7,2013-04-04 05:30:00,
2013-04-04 01:45:00,68.9,64.5,29.88,North,-999,0.0,0.0,86,0.00,,,-99.99,WeatherLink 5.7,2013-04-04 05:45:00,
2013-04-04 02:00:00,68.9,64.9,29.88,North,-999,0.0,0.0,87,0.00,,,-99.99,WeatherLink 5.7,2013-04-04 06:00:00,
2013-04-04 02:15:00,69.1,65.1,29.88,North,-999,0.0,0.0,87,0.00,,,-99.99,WeatherLink 5.7,2013-04-04 06:15:00,
2013-04-04 02:30:00,69.2,65.2,29.88,North,0,0.0,5.0,87,0.00,,,-99.99,WeatherLink 5.7,2013-04-04 06:30:00,
2013-04-04 02:45:00,69.4,65.7,29.88,North,0,0.0,5.0,88,0.00,,,-99.99,WeatherLink 5.7,2013-04-04 06:45:00,
2013-04-04 03:00:00,69.6,65.9,29.88,North,0,0.0,9.0,88,0.00,,,-99.99,WeatherLink 5.7,2013-04-04 07:00:00,
2013-04-04 03:15:00,69.9,66.2,29.88,North,0,0.0,5.0,88,0.00,,,-99.99,WeatherLink 5.7,2013-04-04 07:15:00,
2013-04-04 03:30:00,70.3,66.9,29.87,North,0,1.0,13.0,89,0.00,,,-99.99,WeatherLink 5.7,2013-04-04 07:30:00,
2013-04-04 03:45:00,70.7,67.0,29.86,North,0,1.0,13.0,88,0.00,,,-99.99,WeatherLink 5.7,2013-04-04 07:45:00,
2013-04-04 04:00:00,70.8,67.1,29.86,North,0,1.0,7.0,88,0.00,,,-99.99,WeatherLink 5.7,2013-04-04 08:00:00,
2013-04-04 04:15:00,70.8,67.1,29.85,North,0,1.0,14.0,88,0.01,,,-99.99,WeatherLink 5.7,2013-04-04 08:15:00,
2013-04-04 04:30:00,70.5,66.8,29.84,North,0,1.0,10.0,88,0.02,,,-99.99,WeatherLink 5.7,2013-04-04 08:30:00,
2013-04-04 04:45:00,69.9,66.2,29.83,North,0,2.0,13.0,88,0.02,,,-99.99,WeatherLink 5.7,2013-04-04 08:45:00,
2013-04-04 05:00:00,69.6,66.2,29.82,North,0,2.0,14.0,89,0.02,,,-99.99,WeatherLink 5.7,2013-04-04 09:00:00,
2013-04-04 05:15:00,69.8,66.7,29.83,North,0,2.0,14.0,90,0.01,,,-99.99,WeatherLink 5.7,2013-04-04 09:15:00,
2013-04-04 05:30:00,70.0,66.9,29.83,North,0,1.0,10.0,90,0.00,,,-99.99,WeatherLink 5.7,2013-04-04 09:30:00,
2013-04-04 05:45:00,70.2,67.1,29.85,North,0,1.0,6.0,90,0.00,,,-99.99,WeatherLink 5.7,2013-04-04 09:45:00,
2013-04-04 06:00:00,70.3,66.9,29.85,North,0,2.0,11.0,89,0.00,,,-99.99,WeatherLink 5.7,2013-04-04 10:00:00,
2013-04-04 06:15:00,70.1,66.7,29.84,North,0,3.0,13.0,89,0.01,,,-99.99,WeatherLink 5.7,2013-04-04 10:15:00,
2013-04-04 06:30:00,69.7,66.0,29.84,North,0,4.0,13.0,88,0.01,,,-99.99,WeatherLink 5.7,2013-04-04 10:30:00,
2013-04-04 06:45:00,69.1,65.7,29.85,North,0,2.0,12.0,89,0.02,,,-99.99,WeatherLink 5.7,2013-04-04 10:45:00,
2013-04-04 07:00:00,68.9,65.8,29.84,North,0,3.0,13.0,90,0.02,,,-99.99,WeatherLink 5.7,2013-04-04 11:00:00,
2013-04-04 07:15:00,69.1,66.0,29.83,North,0,5.0,16.0,90,0.01,,,-99.99,WeatherLink 5.7,2013-04-04 11:15:00,
2013-04-04 07:30:00,69.6,66.9,29.83,North,0,4.0,13.0,91,0.01,,,-99.99,WeatherLink 5.7,2013-04-04 11:30:00,
2013-04-04 07:45:00,69.9,66.8,29.84,North,0,1.0,10.0,90,0.00,,,-99.99,WeatherLink 5.7,2013-04-04 11:45:00,
2013-04-04 08:00:00,70.1,67.0,29.83,North,0,2.0,13.0,90,0.00,,,-99.99,WeatherLink 5.7,2013-04-04 12:00:00,
2013-04-04 08:15:00,70.1,67.0,29.85,North,0,1.0,11.0,90,0.00,,,-99.99,WeatherLink 5.7,2013-04-04 12:15:00,
2013-04-04 08:30:00,70.1,67.3,29.86,North,0,0.0,10.0,91,0.00,,,-99.99,WeatherLink 5.7,2013-04-04 12:30:00,
2013-04-04 08:45:00,70.3,67.5,29.86,North,0,2.0,14.0,91,0.00,,,-99.99,WeatherLink 5.7,2013-04-04 12:45:00,
2013-04-04 09:00:00,70.6,67.8,29.87,North,0,1.0,13.0,91,0.02,,,-99.99,WeatherLink 5.7,2013-04-04 13:00:00,
2013-04-04 09:15:00,70.9,68.1,29.88,North,0,1.0,10.0,91,0.02,,,-99.99,WeatherLink 5.7,2013-04-04 13:15:00,
2013-04-04 09:30:00,71.4,68.6,29.87,North,0,2.0,7.0,91,0.02,,,-99.99,WeatherLink 5.7,2013-04-04 13:30:00,
2013-04-04 09:45:00,71.8,69.0,29.88,North,0,1.0,9.0,91,0.02,,,-99.99,WeatherLink 5.7,2013-04-04 13:45:00,
2013-04-04 10:00:00,72.0,68.9,29.89,North,0,1.0,9.0,90,0.00,,,-99.99,WeatherLink 5.7,2013-04-04 14:00:00,
2013-04-04 10:15:00,71.8,68.7,29.89,North,0,1.0,5.0,90,0.00,,,-99.99,WeatherLink 5.7,2013-04-04 14:15:00,
2013-04-04 10:30:00,71.6,68.5,29.90,North,0,0.0,7.0,90,0.00,,,-99.99,WeatherLink 5.7,2013-04-04 14:30:00,
2013-04-04 10:45:00,71.4,68.3,29.91,North,-999,0.0,0.0,90,0.00,,,-99.99,WeatherLink 5.7,2013-04-04 14:45:00,
2013-04-04 11:00:00,71.5,68.4,29.92,North,-999,0.0,0.0,90,0.00,,,-99.99,WeatherLink 5.7,2013-04-04 15:00:00,
2013-04-04 11:15:00,71.5,68.4,29.92,North,0,0.0,6.0,90,0.00,,,-99.99,WeatherLink 5.7,2013-04-04 15:15:00,
2013-04-04 11:30:00,71.5,68.4,29.91,North,0,0.0,7.0,90,0.01,,,-99.99,WeatherLink 5.7,2013-04-04 15:30:00,
2013-04-04 11:45:00,71.5,68.7,29.92,North,0,0.0,4.0,91,0.03,,,-99.99,WeatherLink 5.7,2013-04-04 15:45:00,
2013-04-04 12:00:00,71.5,68.4,29.94,North,0,0.0,5.0,90,0.05,,,-99.99,WeatherLink 5.7,2013-04-04 16:00:00,
2013-04-04 12:15:00,71.1,68.0,29.94,North,0,0.0,6.0,90,0.08,,,-99.99,WeatherLink 5.7,2013-04-04 16:15:00,
2013-04-04 12:30:00,70.6,67.5,29.94,North,0,0.0,7.0,90,0.12,,,-99.99,WeatherLink 5.7,2013-04-04 16:30:00,
2013-04-04 12:45:00,70.0,66.9,29.94,North,0,0.0,6.0,90,0.15,,,-99.99,WeatherLink 5.7,2013-04-04 16:45:00,
2013-04-04 13:00:00,69.4,66.3,29.92,North,0,0.0,7.0,90,0.16,,,-99.99,WeatherLink 5.7,2013-04-04 17:00:00,
2013-04-04 13:15:00,68.9,66.2,29.92,North,0,1.0,9.0,91,0.17,,,-99.99,WeatherLink 5.7,2013-04-04 17:15:00,
2013-04-04 13:30:00,68.5,65.8,29.92,North,0,1.0,11.0,91,0.16,,,-99.99,WeatherLink 5.7,2013-04-04 17:30:00,
2013-04-04 13:45:00,68.3,65.6,29.91,North,0,1.0,10.0,91,0.14,,,-99.99,WeatherLink 5.7,2013-04-04 17:45:00,
2013-04-04 14:00:00,68.0,65.3,29.91,North,0,2.0,12.0,91,0.12,,,-99.99,WeatherLink 5.7,2013-04-04 18:00:00,
2013-04-04 14:15:00,67.8,65.4,29.89,North,0,3.0,12.0,92,0.09,,,-99.99,WeatherLink 5.7,2013-04-04 18:15:00,
2013-04-04 14:30:00,67.8,65.4,29.88,North,0,2.0,12.0,92,0.06,,,-99.99,WeatherLink 5.7,2013-04-04 18:30:00,
2013-04-04 14:45:00,68.0,65.9,29.83,North,0,2.0,12.0,93,0.03,,,-99.99,WeatherLink 5.7,2013-04-04 18:45:00,
2013-04-04 15:00:00,68.3,65.9,29.83,North,0,4.0,13.0,92,0.02,,,-99.99,WeatherLink 5.7,2013-04-04 19:00:00,
2013-04-04 15:15:00,67.9,65.5,29.83,North,0,2.0,10.0,92,0.01,,,-99.99,WeatherLink 5.7,2013-04-04 19:15:00,
2013-04-04 15:30:00,67.8,65.4,29.81,North,0,2.0,13.0,92,0.00,,,-99.99,WeatherLink 5.7,2013-04-04 19:30:00,
2013-04-04 15:45:00,68.4,66.0,29.82,North,0,2.0,15.0,92,0.00,,,-99.99,WeatherLink 5.7,2013-04-04 19:45:00,
2013-04-04 16:00:00,68.9,66.2,29.81,North,0,3.0,12.0,91,0.00,,,-99.99,WeatherLink 5.7,2013-04-04 20:00:00,
2013-04-04 16:15:00,69.1,65.7,29.80,North,0,1.0,9.0,89,0.00,,,-99.99,WeatherLink 5.7,2013-04-04 20:15:00,
2013-04-04 16:30:00,69.3,65.9,29.79,North,0,0.0,4.0,89,0.00,,,-99.99,WeatherLink 5.7,2013-04-04 20:30:00,
2013-04-04 16:45:00,69.8,66.1,29.79,North,0,0.0,3.0,88,0.00,,,-99.99,WeatherLink 5.7,2013-04-04 20:45:00,
2013-04-04 17:00:00,70.8,66.4,29.79,North,0,1.0,11.0,86,0.00,,,-99.99,WeatherLink 5.7,2013-04-04 21:00:00,
2013-04-04 17:15:00,70.9,66.2,29.80,North,0,1.0,12.0,85,0.00,,,-99.99,WeatherLink 5.7,2013-04-04 21:15:00,
2013-04-04 17:30:00,71.4,66.3,29.80,North,0,1.0,9.0,84,0.00,,,-99.99,WeatherLink 5.7,2013-04-04 21:30:00,
2013-04-04 17:45:00,71.8,66.4,29.79,North,0,1.0,12.0,83,0.00,,,-99.99,WeatherLink 5.7,2013-04-04 21:45:00,
2013-04-04 18:00:00,71.4,65.6,29.79,North,0,1.0,10.0,82,0.00,,,-99.99,WeatherLink 5.7,2013-04-04 22:00:00,
2013-04-04 18:15:00,71.0,65.2,29.79,North,0,1.0,10.0,82,0.00,,,-99.99,WeatherLink 5.7,2013-04-04 22:15:00,
2013-04-04 18:30:00,70.8,65.0,29.78,North,0,0.0,6.0,82,0.00,,,-99.99,WeatherLink 5.7,2013-04-04 22:30:00,
2013-04-04 18:45:00,70.7,64.9,29.77,North,-999,0.0,0.0,82,0.00,,,-99.99,WeatherLink 5.7,2013-04-04 22:45:00,
2013-04-04 19:00:00,70.4,64.6,29.78,North,-999,0.0,0.0,82,0.00,,,-99.99,WeatherLink 5.7,2013-04-04 23:00:00,
2013-04-04 19:15:00,70.1,64.7,29.81,North,-999,0.0,0.0,83,0.00,,,-99.99,WeatherLink 5.7,2013-04-04 23:15:00,
2013-04-04 19:30:00,69.8,64.4,29.82,North,-999,0.0,0.0,83,0.00,,,-99.99,WeatherLink 5.7,2013-04-04 23:30:00,
2013-04-04 19:45:00,69.4,64.0,29.82,North,-999,0.0,0.0,83,0.00,,,-99.99,WeatherLink 5.7,2013-04-04 23:45:00,
2013-04-04 20:00:00,69.0,64.0,29.80,North,-999,0.0,0.0,84,0.00,,,-99.99,WeatherLink 5.7,2013-04-05 00:00:00,
2013-04-04 20:15:00,68.7,63.7,29.82,North,-999,0.0,0.0,84,0.00,,,-99.99,WeatherLink 5.7,2013-04-05 00:15:00,
2013-04-04 20:30:00,68.4,63.4,29.83,North,-999,0.0,0.0,84,0.00,,,-99.99,WeatherLink 5.7,2013-04-05 00:30:00,
2013-04-04 20:45:00,68.4,63.7,29.82,North,-999,0.0,0.0,85,0.00,,,-99.99,WeatherLink 5.7,2013-04-05 00:45:00,
2013-04-04 21:00:00,68.4,63.7,29.83,North,-999,0.0,0.0,85,0.00,,,-99.99,WeatherLink 5.7,2013-04-05 01:00:00,
2013-04-04 21:15:00,68.4,63.7,29.82,North,-999,0.0,0.0,85,0.00,,,-99.99,WeatherLink 5.7,2013-04-05 01:15:00,
2013-04-04 21:30:00,68.4,63.7,29.83,North,0,0.0,5.0,85,0.00,,,-99.99,WeatherLink 5.7,2013-04-05 01:30:00,
2013-04-04 21:45:00,68.4,64.0,29.82,North,0,0.0,3.0,86,0.00,,,-99.99,WeatherLink 5.7,2013-04-05 01:45:00,
2013-04-04 22:00:00,68.4,64.0,29.82,North,-999,0.0,0.0,86,0.00,,,-99.99,WeatherLink 5.7,2013-04-05 02:00:00,
2013-04-04 22:15:00,68.4,64.0,29.84,North,-999,0.0,0.0,86,0.00,,,-99.99,WeatherLink 5.7,2013-04-05 02:15:00,
2013-04-04 22:30:00,68.4,64.0,29.83,North,-999,0.0,0.0,86,0.00,,,-99.99,WeatherLink 5.7,2013-04-05 02:30:00,
2013-04-04 22:45:00,68.3,63.9,29.82,North,-999,0.0,0.0,86,0.00,,,-99.99,WeatherLink 5.7,2013-04-05 02:45:00,
2013-04-04 23:00:00,68.2,64.2,29.83,North,0,0.0,7.0,87,0.00,,,-99.99,WeatherLink 5.7,2013-04-05 03:00:00,
2013-04-04 23:15:00,68.0,64.0,29.83,North,0,0.0,5.0,87,0.00,,,-99.99,WeatherLink 5.7,2013-04-05 03:15:00,
2013-04-04 23:30:00,67.9,63.9,29.80,North,-999,0.0,0.0,87,0.00,,,-99.99,WeatherLink 5.7,2013-04-05 03:30:00,
2013-04-04 23:45:00,67.8,63.8,29.79,North,0,2.0,10.0,87,0.00,,,-99.99,WeatherLink 5.7,2013-04-05 03:45:00,